Juneau, WI

12:37 PM CST on November 19, 2017 (GMT -0600)
Dodge County

Weather History for KUNU - November, 2011

Change the Weather History Date:

Saturday, November 26, 2011

  Actual Average Record
Temperature  
Mean Temperature 48 °F -  
Max Temperature 50 °F 40 °F 64 °F (1990)
Min Temperature 46 °F 28 °F 10 °F (1991)
Degree Days  
Heating Degree Days 17    
Moisture  
Dew Point 46 °F    
Average Humidity 89    
Maximum Humidity 100    
Minimum Humidity 71    
Precipitation  
Precipitation 0.35 in - - ()
Sea Level Pressure  
Sea Level Pressure 29.78 in    
Wind  
Wind Speed 10 mph (South)    
Max Wind Speed 17 mph    
Max Gust Speed 22 mph    
Visibility 7 miles    
Events Rain    
Averages and records for this station are not official NWS values.
T = Trace of Precipitation, MM = Missing Value Source: NWS Daily Summary

Daily Weather History Graph

Daily Weather History Graph

Search for Another Location

Airport or City:

Trip Planner

Search our weather history database for the weather conditions in past years. The results will help you decide how hot, cold, wet, or windy it might be!

Date:

Astronomy

Nov. 26, 2011 Rise Set
Actual Time 7:01 AM CST 4:22 PM CST
Civil Twilight 6:29 AM CST 4:53 PM CST
Nautical Twilight 5:54 AM CST 5:29 PM CST
Astronomical Twilight 5:20 AM CST 6:03 PM CST
Moon 8:34 AM CST (11/26) 5:51 PM CST (11/26)
Length of Visible Light 10h 23m
Length of Day
9h 20m
Waxing Crescent, 3% of the Moon is Illuminated
Nov 26
Waxing Crescent
Dec 2
First Quarter
Dec 10
Full
Dec 17
Last Quarter
Dec 24
New

Hourly Weather History & Observations

Time (CST) Temp. Windchill Dew Point Humidity Pressure Visibility Wind Dir Wind Speed Gust Speed Precip Events Conditions
12:15 AM 46.4 °F 44.3 °F 41.0 °F 81% 29.83 in 10.0 mi ESE 4.6 mph - N/A   Overcast
12:35 AM 46.4 °F 43.5 °F 41.0 °F 81% 29.82 in 10.0 mi SE 5.8 mph - N/A   Overcast
12:55 AM 46.4 °F 42.9 °F 41.0 °F 81% 29.82 in 10.0 mi SE 6.9 mph - N/A   Overcast
1:15 AM 46.4 °F 42.4 °F 42.8 °F 87% 29.82 in 10.0 mi SE 8.1 mph - N/A   Overcast
1:35 AM 48.2 °F - 42.8 °F 82% 29.82 in 10.0 mi SE 8.1 mph - N/A   Overcast
1:55 AM 50.0 °F - 41.0 °F 71% 29.81 in 10.0 mi SSE 10.4 mph - N/A   Overcast
2:15 AM 50.0 °F - 41.0 °F 71% 29.81 in 10.0 mi South 11.5 mph - N/A   Overcast
2:35 AM 50.0 °F - 41.0 °F 71% 29.81 in 10.0 mi SSE 11.5 mph - N/A   Overcast
2:55 AM 50.0 °F - 41.0 °F 71% 29.79 in 10.0 mi SSE 11.5 mph - N/A   Overcast
3:15 AM 50.0 °F - 41.0 °F 71% 29.79 in 10.0 mi South 12.7 mph 18.4 mph N/A   Overcast
3:35 AM 50.0 °F - 41.0 °F 71% 29.79 in 10.0 mi South 11.5 mph - N/A   Overcast
3:55 AM 50.0 °F - 41.0 °F 71% 29.79 in 10.0 mi South 12.7 mph - N/A   Overcast
4:15 AM 50.0 °F - 41.0 °F 71% 29.79 in 10.0 mi South 12.7 mph - N/A   Overcast
4:35 AM 50.0 °F - 41.0 °F 71% 29.77 in 10.0 mi SSE 13.8 mph - N/A   Overcast
5:15 AM 50.0 °F - 41.0 °F 71% 29.78 in 10.0 mi South 12.7 mph - N/A   Overcast
5:35 AM 50.0 °F - 41.0 °F 71% 29.78 in 10.0 mi South 13.8 mph - N/A   Overcast
6:15 AM 50.0 °F - 41.0 °F 71% 29.80 in 10.0 mi South 16.1 mph 21.9 mph N/A   Overcast
6:35 AM 50.0 °F - 42.8 °F 76% 29.78 in 7.0 mi South 13.8 mph 20.7 mph N/A   Overcast
6:55 AM 50.0 °F - 42.8 °F 76% 29.79 in 10.0 mi SSW 17.3 mph 20.7 mph N/A   Overcast
7:15 AM 48.2 °F - 44.6 °F 87% 29.78 in 7.0 mi South 10.4 mph 18.4 mph N/A   Overcast
7:35 AM 48.2 °F - 46.4 °F 93% 29.79 in 7.0 mi South 12.7 mph 17.3 mph N/A   Overcast
7:55 AM 48.2 °F - 46.4 °F 93% 29.80 in 4.0 mi South 13.8 mph - N/A   Overcast
8:15 AM 48.2 °F - 46.4 °F 93% 29.81 in 4.0 mi South 15.0 mph 20.7 mph N/A   Overcast
8:35 AM 48.2 °F - 46.4 °F 93% 29.82 in 7.0 mi South 15.0 mph 20.7 mph N/A Rain Light Rain
8:55 AM 48.2 °F - 46.4 °F 93% 29.81 in 5.0 mi South 12.7 mph - N/A Rain Rain
9:15 AM 48.2 °F - 46.4 °F 93% 29.81 in 5.0 mi South 15.0 mph 18.4 mph N/A Rain Light Rain
9:35 AM 48.2 °F - 46.4 °F 93% 29.80 in 7.0 mi South 12.7 mph - N/A   Light Drizzle
9:55 AM 50.0 °F - 46.4 °F 87% 29.79 in 10.0 mi South 13.8 mph - N/A Rain Light Rain
10:15 AM 50.0 °F - 46.4 °F 87% 29.80 in 10.0 mi South 12.7 mph - N/A   Overcast
10:35 AM 50.0 °F - 46.4 °F 87% 29.79 in 10.0 mi South 12.7 mph 17.3 mph N/A   Overcast
10:55 AM 50.0 °F - 46.4 °F 87% 29.77 in 10.0 mi South 13.8 mph - N/A Rain Rain
11:15 AM 50.0 °F - 48.2 °F 94% 29.76 in 7.0 mi South 12.7 mph - N/A   Drizzle
11:35 AM 50.0 °F - 48.2 °F 94% 29.76 in 7.0 mi SSW 11.5 mph - N/A Rain Rain
11:55 AM 50.0 °F - 48.2 °F 94% 29.77 in 7.0 mi SSW 11.5 mph - N/A Rain Light Rain
12:15 PM 50.0 °F - 48.2 °F 94% 29.76 in 7.0 mi South 10.4 mph - 0.01 in Rain Light Rain
12:35 PM 50.0 °F - 48.2 °F 94% 29.77 in 7.0 mi South 13.8 mph - 0.02 in Rain Light Rain
12:55 PM 50.0 °F - 50.0 °F 100% 29.76 in 5.0 mi SSW 11.5 mph - 0.04 in Rain Light Rain
1:15 PM 50.0 °F - 50.0 °F 100% 29.76 in 5.0 mi SSW 12.7 mph - 0.01 in Rain Light Rain
1:35 PM 50.0 °F - 50.0 °F 100% 29.76 in 5.0 mi SSW 10.4 mph - 0.03 in Rain Light Rain
1:55 PM 50.0 °F - 50.0 °F 100% 29.75 in 7.0 mi SSW 11.5 mph - 0.04 in Rain Light Rain
2:15 PM 50.0 °F - 50.0 °F 100% 29.75 in 5.0 mi South 10.4 mph - 0.01 in Rain Rain
2:35 PM 50.0 °F - 50.0 °F 100% 29.75 in 7.0 mi SSW 9.2 mph - 0.03 in Rain Light Rain
2:55 PM 50.0 °F - 50.0 °F 100% 29.76 in 7.0 mi South 9.2 mph - 0.05 in Rain Light Rain
3:15 PM 50.0 °F - 50.0 °F 100% 29.77 in 5.0 mi South 8.1 mph - 0.02 in Rain Light Rain
3:35 PM 50.0 °F - 50.0 °F 100% 29.77 in 5.0 mi South 6.9 mph - 0.05 in Rain Light Rain
3:55 PM 50.0 °F - 50.0 °F 100% 29.77 in 4.0 mi SSW 8.1 mph - 0.08 in Rain Rain
4:15 PM 50.0 °F - 50.0 °F 100% 29.77 in 4.0 mi SSW 5.8 mph - 0.02 in Rain Light Rain
4:35 PM 50.0 °F - 50.0 °F 100% 29.77 in 4.0 mi SSW 6.9 mph - 0.04 in Rain Light Rain
4:55 PM 50.0 °F - 50.0 °F 100% 29.77 in 3.0 mi SW 5.8 mph - 0.05 in Rain Light Rain
5:15 PM 50.0 °F - 50.0 °F 100% 29.76 in 4.0 mi WSW 3.5 mph - 0.01 in Rain Light Rain
5:35 PM 50.0 °F - 50.0 °F 100% 29.77 in 4.0 mi SSW 5.8 mph - 0.01 in Rain Light Rain
5:55 PM 50.0 °F - 50.0 °F 100% 29.77 in 4.0 mi SW 6.9 mph - 0.02 in   Drizzle
6:15 PM 50.0 °F - 50.0 °F 100% 29.77 in 3.0 mi SSW 6.9 mph - 0.01 in Rain Light Rain
6:35 PM 50.0 °F - 48.2 °F 94% 29.77 in 2.5 mi SSW 4.6 mph - 0.03 in Rain Light Rain
6:55 PM 50.0 °F - 48.2 °F 94% 29.76 in 2.5 mi SW 4.6 mph - 0.04 in Rain Light Rain
7:15 PM 50.0 °F - 48.2 °F 94% 29.77 in 2.0 mi SW 4.6 mph - N/A   Drizzle
7:35 PM 50.0 °F - 50.0 °F 100% 29.77 in 2.5 mi SW 4.6 mph - N/A   Drizzle
7:55 PM 50.0 °F - 48.2 °F 94% 29.77 in 1.8 mi West 6.9 mph - 0.01 in Rain Light Rain
8:15 PM 48.2 °F - 46.4 °F 93% 29.78 in 5.0 mi West 8.1 mph - 0.01 in Rain Rain
8:35 PM 46.4 °F 41.5 °F 46.4 °F 100% 29.78 in 5.0 mi West 10.4 mph - 0.02 in Rain Light Rain
8:55 PM 46.4 °F 42.9 °F 44.6 °F 93% 29.78 in 5.0 mi West 6.9 mph - 0.03 in Rain Rain
9:15 PM 44.6 °F 41.4 °F 44.6 °F 100% 29.79 in 7.0 mi West 5.8 mph 17.3 mph N/A   Drizzle
9:35 PM 42.8 °F 37.5 °F 42.8 °F 100% 29.78 in 7.0 mi WNW 9.2 mph - N/A Rain Light Rain
9:55 PM 42.8 °F 38.6 °F 42.8 °F 100% 29.77 in 10.0 mi WNW 6.9 mph - N/A   Drizzle
10:15 PM 42.8 °F 39.3 °F 42.8 °F 100% 29.79 in 7.0 mi West 5.8 mph - N/A   Drizzle
10:35 PM 42.8 °F 38.0 °F 42.8 °F 100% 29.78 in 7.0 mi WNW 8.1 mph - N/A   Drizzle
10:55 PM 42.8 °F 38.6 °F 42.8 °F 100% 29.79 in 7.0 mi WNW 6.9 mph - N/A   Drizzle
11:15 PM 42.8 °F 40.1 °F 42.8 °F 100% 29.79 in 10.0 mi WNW 4.6 mph - N/A Rain Light Rain
11:55 PM 41.0 °F 35.8 °F 41.0 °F 100% 29.80 in 10.0 mi West 8.1 mph - 0.01 in Rain Light Rain